Regional Weather Roundup
Issued by NWS

Home | Current Version | Previous Version | Text Only | Print | Product List | Glossary Off
Versions: 1 2 3 4 5 6 7 8 9 10 11 12 13 14 15 16 17 18 19 20 21 22 23 24 25 26 27 28 29 30 31 32 33 34 35 36 37 38 39 40 41 42 43 44 45 46 47 48 49 50

184
ASUS43 KMPX 221701
RWRMN
WEATHER ROUNDUP FOR MINNESOTA
NATIONAL WEATHER SERVICE TWIN CITIES/CHANHASSEN MN
1200 PM CDT TUE MAY 22 2018


NOTE: "FAIR" INDICATES FEW OR NO CLOUDS BELOW 12,000 FEET WITH NO
SIGNIFICANT WEATHER AND/OR OBSTRUCTIONS TO VISIBILITY. N/A MEANS
CURRENT SKY AND/OR WEATHER CONDITIONS ARE NOT AVAILABLE.

MNZ060>063-068>070-221800-
   Twin Cities Metro

CITY           SKY/WX    TMP DP  RH WIND       PRES   REMARKS
TWIN CITIES    PTSUNNY   67  58  72 S6        30.08S
BLAINE         PTSUNNY   70  57  64 S8        30.07S
LAKEVILLE      PTSUNNY   64  57  77 W3        30.08S
SOUTH ST PAUL  FAIR      67  56  66 SW3       30.08F
LAKE ELMO      CLOUDY    63  57  82 S3        30.09F
$$
MNZ001>005-007-008-013>017-022>024-027-028-221800-
   Northwest Minnesota

CITY           SKY/WX    TMP DP  RH WIND       PRES   REMARKS
BEMIDJI        FAIR      69  54  60 SE6       30.04R
HALLOCK        FAIR      75  57  53 S8        29.97S
ROSEAU         FAIR      72  55  56 SW7       30.00R
WARROAD        FAIR      72  57  60 SW6       30.01R
CROOKSTON      FAIR      72  57  60 SW9       30.01S
FOSSTON        FAIR      70  52  52 S5        30.03S
DETROIT LAKES  PTSUNNY   64  54  68 SW10      30.06R
MOORHEAD       FAIR      66  57  72 S9        30.03F HAZE
MAHNOMEN       CLOUDY    69  55  61 S7        30.03R
$$
MNZ006-009>011-018-025>026-221800-
   North Central Minnesota

CITY           SKY/WX    TMP DP  RH WIND       PRES   REMARKS
FLAG ISLAND    FAIR      57  54  88 SE10      29.99S HAZE
WASKISH          N/A    N/A N/A N/A W7        30.03S
COOK           FAIR      70  50  49 CALM      30.04R
$$
MNZ012-019>021-037-221800-
   Northeast Minnesota

CITY           SKY/WX    TMP DP  RH WIND       PRES   REMARKS
ELY            FAIR      70  45  40 SE3       30.03S
EVELETH        FAIR      70  50  49 W3        30.05R
DULUTH HARBOR  FAIR      61  54  77 N3        30.04S
TWO HARBORS    FAIR     N/A N/A N/A S5        30.02R
SILVER BAY     FAIR      73  46  38 S10       30.01R
$$
MNZ029>031-032-039>041-046>048-054>057-064-221800-
   West Central Minnesota

CITY           SKY/WX    TMP DP  RH WIND       PRES   REMARKS
FERGUS FALLS   FAIR      68  57  68 S7        30.00S
MORRIS         SUNNY     72  57  60 SE6       30.03F
ELBOW LAKE     CLOUDY    67  57  69 S8        30.05R
WADENA         CLOUDY    63  55  77 S5        30.05S
GLENWOOD       FAIR      66  57  72 S6        30.06F
BENSON         MOSUNNY   70  57  64 S7        30.05F
ORTONVILLE     SUNNY     72  57  60 SE3       30.02S
MADISON        SUNNY     75  61  60 SE6       30.02S
WILLMAR        PTSUNNY   66  57  72 SE6       30.08S
$$
MNZ033>034-036-042>043-049>051-058-059-221800-
   Central Minnesota

CITY           SKY/WX    TMP DP  RH WIND       PRES   REMARKS
SAUK CENTRE    CLOUDY    64  57  78 SE5       30.06F
PAYNESVILLE    PTSUNNY   65  59  79 CALM      30.06F
AITKIN         CLOUDY    66  52  59 SW6       30.04S
PINE RIVER     CLOUDY    63  52  67 S6        30.09R
STAPLES        CLOUDY    64  54  68 SE8       30.06S
LONG PRAIRIE   CLOUDY    64  55  72 S6        30.07S
LITTLE FALLS   PTSUNNY   66  54  63 S9        30.06S
LITCHFIELD     FAIR      64  61  88 SE5       30.07S
BUFFALO        CLOUDY    64  57  79 SW5       30.08F
MAPLE LAKE     CLOUDY    66  60  81 CALM      30.07F
HUTCHINSON     PTSUNNY   66  60  80 CALM      30.08S
$$
MNZ037-044-045-052-053-221800-
   East Central Minnesota

CITY           SKY/WX    TMP DP  RH WIND       PRES   REMARKS
PRINCETON      PTSUNNY   70  57  64 S3        30.07S
MORA           PTSUNNY   64  54  68 W3        30.08S
CAMBRIDGE      PTSUNNY   70  55  60 SE3       30.07S
RUSH CITY      PTSUNNY   67  56  67 S5        30.07S
MOOSE LAKE     PTSUNNY   70  54  56 S5        30.04S
HINCKLEY       CLOUDY    70  55  60 SW5       30.06S
CLOQUET        PTSUNNY   70  52  52 SW6       30.05S
MCGREGOR       CLOUDY    68  54  60 S7        30.06R
$$
MNZ071>073-080-081-089-090-097-098-221800-
   Southwest Minnesota

CITY           SKY/WX    TMP DP  RH WIND       PRES   REMARKS
MONTEVIDEO     SUNNY     70  61  73 S6        30.04F
GRANITE FALLS  SUNNY     70  60  70 E6        30.06S
CANBY          SUNNY     72  61  67 NE3       30.03F
OLIVIA         MOSUNNY   70  61  73 CALM      30.05S
PIPESTONE      SUNNY     73  59  60 S6        30.01F
WINDOM         SUNNY     70  50  49 E8        30.04F
JACKSON        SUNNY     70  59  68 E6        30.05F
TRACY          SUNNY     69  64  82 E8        30.03F
SLAYTON        SUNNY     72  59  63 E9        30.04S
$$
MNZ065>067-074>077-082>085-091>093-221800-
   South Central Minnesota

CITY           SKY/WX    TMP DP  RH WIND       PRES   REMARKS
NEW ULM        MOSUNNY   66  59  77 CALM      30.06S
ST JAMES       MOSUNNY   70  61  73 SE6       30.06F
GLENCOE        PTSUNNY   67  60  79 CALM      30.07S
FARIBAULT      FAIR      66  57  72 CALM      30.09S
WASECA         CLOUDY    64  54  68 S6        30.10S
ALBERT LEA     PTSUNNY   64  55  72 CALM      30.09S
$$
MNZ078>079-086>088-094>096-221800-
   Southeast Minnesota

CITY           SKY/WX    TMP DP  RH WIND       PRES   REMARKS
ROCHESTER      PTSUNNY   64  59  83 VRB6      30.10S
RED WING       CLOUDY    63  55  77 W5        30.09R
STANTON        CLOUDY    68  58  70 CALM      30.07S
DODGE CENTER   PTSUNNY   61  59  94 NW3       30.10S FOG
WINONA         CLOUDY    61  55  82 CALM      30.07S
AUSTIN         CLOUDY    64  57  77 W5        30.09S
PRESTON        CLOUDY    59  55  87 NW3       30.12R
$$
ABBREVIATIONS USED IN REMARKS
   TC - TEMPERATURES IN CELSIUS
  WCI - WIND CHILL INDEX
   HX - HEAT INDEX
  VSB - VISIBILITY
$$




USA.gov is the U.S. government's official web portal to all federal, state and local government web resources and services.